Find Starlink 36676

NORAD ID: 67912 Int'l Des: 2026-036 Owner: SPXS Country: US Constellation: starlink operational
LEOCIRCULAR

当前视图

正在加载3D地球...

关于 Starlink 36676

正在加载描述...

即将过境

Passes for default location (London). Set your location on the main map for personalized predictions.

高度历史

Loading altitude history...

两行轨道根数

1 67912U 26036J 26146.11579320 .00015422 00000-0 56867-3 0 9998
2 67912 43.0013 167.9724 0001161 251.0124 109.0602 15.27586806 15561
Epoch: May 26, 2026 • Age: 20 hours

当前状态

高度 487.7 km
速度 7.62 km/s
星下点 -22.77°S, 147.24°E
发射日期 Feb 22, 2026
运行时间 0.2 years
类型 internet

技术详情

分类 Payload
质量 575.00 kg
干质量 530.00 kg
总质量 575.00 kg
长度 0.30 m
直径 4.10 m
跨度 29.00 m
形状 Box + pan
制造商 SPXS
平台类型 Starlink V2MO
阶段状态 In Orbit
所有者/国家 SPXS/US

Most Searched